This demonstration page uses our WeatherBlox Daily Observations layout. Learn more.

Left ArrowRight Arrow

Hourly Observations for May 18, 2022

Temp ( °F °C ) Dew Point ( °F °C ) Humidity (%) Winds ( mph kmh ) Pressure ( in mb ) Visibility ( mi km ) Precip ( " mm )
12:56 am 00:56 Mostly Cloudy with Thunderstorms 65 18.1 61 15.9 87 87 Calm 29.79 1009 10 16 0.13 3.30
1:07 am 01:07 Mostly Clear with Thunderstorms 64 18 61 16 88 88 WNW 18 30 29.84 1011 3 5 0.00 0.00
1:11 am 01:11 Mostly Clear with Mist and Fog 64 18 63 17 94 94 NW 9 15 29.84 1011 1 2 0.00 0.00
1:17 am 01:17 Mostly Clear with Mist and Fog 64 18 61 16 88 88 ESE 12 19 29.80 1009 1 2 0.00 0.00
1:46 am 01:46 Mostly Cloudy with Light Showers 64 18 63 17 94 94 ESE 7 11 29.76 1008 6 10 0.00 0.00
1:56 am 01:56 Mostly Cloudy with Light Rain 64 17.5 63 17.3 99 99 SE 7 11 29.76 1008 6 10 0.42 10.67
2:56 am 02:56 undefined 64 18 63 17.3 96 96 W 3 6 29.83 1010 10 16 0.00 0.00
3:56 am 03:56 Cloudy 64 17.9 64 17.9 100 100 NW 3 6 29.83 1010 9 14 0.00 0.00
4:56 am 04:56 Mostly Cloudy 65 18.1 65 18.1 100 100 SSE 5 7 29.82 1010 10 16 0.00 0.00
5:56 am 05:56 Partly Cloudy with Mist and Fog 64 17.6 64 17.6 100 100 NW 8 13 29.81 1009 6 10 0.00 0.00
6:56 am 06:56 Partly Cloudy with Mist and Fog 63 17.4 63 17.4 100 100 WNW 5 7 29.82 1010 3 4 0.00 0.00
7:11 am 07:11 Partly Cloudy with Mist and Fog 63 17 63 17 100 100 WNW 8 13 29.83 1010 3 5 0.00 0.00
7:56 am 07:56 Partly Cloudy 63 17.2 62 16.9 98 98 WNW 10 17 29.85 1011 9 14 0.00 0.00
8:56 am 08:56 undefined 66 18.8 60 15.5 81 81 NW 13 20 29.87 1011 10 16 0.00 0.00
9:56 am 09:56 Sunny 69 20.8 59 14.9 69 69 NNW 10 17 29.88 1012 10 16 0.00 0.00
10:56 am 10:56 Sunny 72 22.2 59 15 64 64 NW 15 24 29.88 1012 10 16 0.00 0.00
11:56 am 11:56 Sunny 75 23.7 59 15.2 59 59 NNW 6 9 29.88 1012 7 11 0.00 0.00
12:56 pm 12:56 Sunny 77 24.9 59 15.2 55 55 NNW 8 13 29.88 1012 9 14 0.00 0.00
1:56 pm 13:56 Sunny 79 26.3 58 14.7 49 49 NW 9 15 29.87 1012 10 16 0.00 0.00
1:57 pm 13:57 Sunny 79 26.2 59 15.2 51 51 NW 9 15 29.86 1011 10 16 0.00 0.00
2:56 pm 14:56 Sunny 80 26.9 56 13.2 43 43 W 6 9 29.85 1011 10 16 0.00 0.00
3:56 pm 15:56 Sunny 82 28 56 13.5 41 41 W 9 15 29.83 1010 10 16 0.00 0.00
4:56 pm 16:56 Sunny 84 28.7 51 10.8 33 33 N 5 7 29.81 1010 10 16 0.00 0.00
5:56 pm 17:56 Sunny 83 28.2 50 9.9 32 32 W 3 6 29.80 1009 9 14 0.00 0.00
6:56 pm 18:56 Sunny 82 27.6 51 10.7 35 35 WNW 5 7 29.78 1009 10 16 0.00 0.00
7:56 pm 19:56 Sunny 82 27.7 46 8 29 29 SW 3 6 29.77 1008 10 16 0.00 0.00
8:56 pm 20:56 Clear 77 24.8 51 10.6 41 41 Calm 29.77 1008 10 16 0.00 0.00
9:56 pm 21:56 Clear 71 21.8 56 13.2 58 58 SE 3 6 29.78 1009 10 16 0.00 0.00
10:56 pm 22:56 Clear 69 20.6 56 13.1 62 62 Calm 29.77 1008 10 16 0.00 0.00
11:56 pm 23:56 Clear 68 19.8 55 13 65 65 Calm 29.76 1008 10 16 0.00 0.00

Powered by AerisWeather